[[{"header":{"parameterUnit":"m.s-1","parameterCategory":1,"la1":30.2991,"la2":30.254,"lo1":-89.0895,"lo2":-89.0444,"dy":0.0017,"dx":0.0017,"nx":28,"ny":28,"refTime":"2024-03-05T09:00:00:Z","depth":0,"parameterNumber":2,"parameterNumberName":"U-component_of_WINDS"},"data":[0,0,0,0,0,0,0,0,0,0,0,0,0,0,0,0,0,0,0,0,0,0,0,0,0,0,0,0,0,0,0,0,0,0,0,0,0,0,0,0,0,0,0,0,0,0,0,0,0,0,0,0,0,0,0,0,0,0,-5.024,-5.0243,0,-5.052,-5.0523,-5.0527,-5.0553,-5.055,-5.0547,-5.0544,-5.0836,-5.0846,-5.0857,0,0,0,0,0,0,0,0,0,0,0,0,0,-4.9734,-4.9743,-5.024,-5.0243,-5.0247,-5.052,-5.0524,-5.0527,-5.0554,-5.055,-5.0546,-5.0543,-5.0833,-5.0845,-5.0858,0,0,0,0,0,0,0,0,0,0,0,0,0,-4.9978,-4.9746,-5.0239,-5.0293,-5.03,-5.0519,-5.0524,-5.0528,-5.0554,-5.055,-5.0546,-5.0541,-5.0828,-5.0844,-5.0859,-5.1045,0,0,-5.0907,-5.0914,0,0,0,0,0,0,0,0,-4.9964,-4.9996,-5.0281,-5.0289,-5.0298,-5.0497,-5.0452,-5.0702,-5.0556,-5.0458,-5.0544,-5.0539,-5.0727,-5.0751,-5.0813,-5.1059,-5.1071,-5.0909,-5.0918,-5.0925,-5.093,0,0,0,0,0,0,0,-4.9947,-4.9984,-5.0351,-5.0286,-5.0296,-5.0305,-5.0335,-5.0499,-5.0614,-5.0466,-5.0469,-5.0501,-5.0731,-5.0798,-5.082,-5.1076,-5.0908,-5.0922,-5.0932,-5.0938,-5.149,-5.1495,0,0,0,0,0,0,-4.9919,-4.997,-5.0342,-5.0359,-5.0117,-5.0317,-5.0351,-5.0438,-5.0612,-5.0635,-5.0505,-5.0502,-5.0773,-5.0802,-5.0831,-5.1061,-5.0925,-5.094,-5.0949,-5.1485,-5.1491,-5.1497,0,0,0,0,0,0,-4.9908,-4.9952,-5.0331,-5.0166,-5.0214,-5.0331,-5.0428,-5.0446,-5.0513,-5.0641,-5.0663,-5.0552,-5.0771,-5.0809,-5.0992,-5.1071,-5.0947,-5.0961,-5.1479,-5.1487,-5.1494,-5.1522,0,0,0,0,0,0,-4.9893,-4.9948,-5.0018,-5.0167,-5.0223,-5.0485,-5.0433,-5.0454,-5.0539,-5.0538,-5.0691,-5.0713,-5.077,-5.0968,-5.1007,-5.1091,-5.0974,-5.1472,-5.1482,-5.1492,-5.1514,-5.1529,-5.1542,0,0,0,0,0,-4.9875,-5.0015,-5.0021,-5.0066,-5.0313,-5.049,-5.0522,-5.0584,-5.0545,-5.0618,-5.0701,-5.0708,-5.1056,-5.0987,-5.1031,-5.112,-5.1467,-5.148,-5.1491,-5.1508,-5.1526,-5.1542,0,0,0,0,0,0,-4.9874,-5.0036,-5.0044,-5.0236,-5.0349,-5.0494,-5.0587,-5.0602,-5.0729,-5.0722,-5.0796,-5.083,-5.1011,-5.1085,-5.1004,-5.1311,-5.1258,-5.1279,-5.1256,-5.1275,-5.1288,-5.1267,-5.0987,0,0,0,0,0,-4.9896,-5.0024,-5.0159,-5.0316,-5.0372,-5.047,-5.0549,-5.0587,-5.0708,-5.0756,-5.0852,-5.097,-5.1107,-5.1195,-5.1327,-5.1525,-5.156,-5.1609,-5.1623,-5.1634,-5.1651,-5.1763,-5.1787,-5.1535,-5.1535,-5.1535,0,0,-4.9942,-5.0047,-5.0123,-5.0318,-5.041,-5.0543,-5.0509,-5.0651,-5.0751,-5.0778,-5.0956,-5.1032,-5.1169,-5.136,-5.145,-5.1427,-5.1729,-5.1649,-5.1657,-5.1669,-5.1778,-5.1802,-5.1823,-5.1543,-5.1542,-5.1541,0,0,-5.0095,-5.0186,-5.0327,-5.042,-5.0559,-5.0624,-5.0658,-5.0802,-5.0852,-5.1032,-5.1055,-5.1177,-5.141,-5.1507,-5.1586,-5.1779,-5.179,-5.182,-5.1894,-5.2002,-5.2022,-5.204,-5.2109,-5.2133,-5.1837,-5.1837,-5.1837,0,-5.0136,-5.0335,-5.0398,-5.054,-5.0626,-5.0655,-5.08,-5.0887,-5.1063,-5.1123,-5.1095,-5.1389,-5.1483,-5.1698,-5.1745,-5.1809,-5.1851,-5.1802,-5.2014,-5.2032,-5.205,-5.2117,-5.2143,-5.184,-5.184,-5.1839,-5.1839,0,-5.0379,-5.0518,-5.0615,-5.0783,-5.088,-5.1022,-5.1109,-5.12,-5.1231,-5.1299,-5.1484,-5.1598,-5.1755,-5.1809,-5.1841,-5.203,-5.2012,-5.1998,-5.1947,-5.2076,-5.214,-5.2166,-5.1844,-5.1843,-5.1842,-5.1841,0,0,-5.0538,-5.0739,-5.0774,-5.0852,-5.1008,-5.1118,-5.1263,-5.1415,-5.1492,-5.1613,-5.1738,-5.1935,-5.1924,-5.2014,-5.2058,-5.2153,-5.2299,-5.2128,-5.2132,-5.2156,-5.2517,-5.2526,-5.2555,-5.2308,-5.2313,-5.2317,-5.2506,0,-5.0709,-5.0965,-5.1027,-5.1247,-5.1377,-5.1408,-5.1535,-5.1646,-5.1714,-5.1836,-5.1913,-5.2051,-5.2025,-5.208,-5.2176,-5.2261,-5.2373,-5.2248,-5.2426,-5.2432,-5.239,-5.2588,-5.2599,-5.2771,-5.2531,-5.2535,-5.2539,0,-5.0942,-5.1067,-5.13,-5.1441,-5.1498,-5.161,-5.1756,-5.1871,-5.1999,-5.2042,-5.2144,-5.2179,-5.2333,-5.2274,-5.249,-5.2403,-5.2481,-5.2534,-5.2542,-5.2561,-5.2492,-5.2613,-5.2827,-5.2853,-5.2579,-5.2575,-5.2573,0,-5.1035,-5.1262,-5.1431,-5.1496,-5.1665,-5.1744,-5.1818,-5.1941,-5.2029,-5.2157,-5.2216,-5.236,-5.244,-5.2553,-5.2626,-5.2576,-5.2836,-5.2783,-5.2878,-5.2876,-5.2931,-5.2926,-5.316,-5.298,-5.298,-5.2979,-5.2979,0,-5.122,-5.1361,-5.1475,-5.1579,-5.174,-5.181,-5.1968,-5.2043,-5.2153,-5.2274,-5.231,-5.2423,-5.2513,-5.264,-5.2699,-5.2869,-5.2905,-5.2945,-5.2959,-5.2942,-5.2937,-5.2993,-5.2983,-5.2986,-5.2984,-5.2983,-5.2982,0,-5.135,-5.1432,-5.1619,-5.1763,-5.1803,-5.1915,-5.204,-5.2143,-5.2213,-5.2365,-5.2406,-5.2516,-5.2667,-5.2751,-5.2941,-5.2981,-5.3171,-5.3179,-5.3127,-5.3133,-5.3223,-5.3214,-5.3502,-5.3544,-5.3335,-5.3337,-5.3338,0,-5.1463,-5.1572,-5.1728,-5.1811,-5.1886,-5.2019,-5.2109,-5.2184,-5.2277,-5.2431,-5.2517,-5.2669,-5.2795,-5.3035,-5.3134,-5.328,-5.3292,-5.3383,-5.3314,-5.3294,-5.3294,-5.3287,-5.3299,-5.3394,-5.3396,-5.3398,-5.3399,0,-5.1654,-5.1689,-5.1816,-5.1959,-5.2065,-5.2181,-5.2296,-5.2362,-5.2457,-5.256,-5.2713,-5.2811,-5.3005,-5.3157,-5.3311,-5.339,-5.3412,-5.342,-5.345,-5.3433,-5.3399,-5.342,-5.3159,-5.3413,-5.3412,-5.341,-5.341,-5.3409,-5.178,-5.1879,-5.2004,-5.2145,-5.224,-5.2347,-5.2451,-5.2534,-5.2663,-5.2825,-5.2862,-5.3025,-5.3153,-5.3362,-5.3445,-5.3575,-5.3558,-5.3601,-5.3612,-5.3622,-5.3625,-5.3378,-5.3603,-5.3603,-5.3603,-5.3602,-5.3602,0,-5.1973,-5.2055,-5.2184,-5.2344,-5.2456,-5.2464,-5.2593,-5.2687,-5.2828,-5.2945,-5.3068,-5.3246,-5.3393,-5.3504,-5.3656,-5.3738,-5.3752,-5.3776,-5.3771,-5.3789,-5.3631,-5.359,-5.3762,-5.3762,-5.3762,-5.3762,-5.3762,-5.3762,-5.2087,-5.2255,-5.2306,-5.2523,-5.2605,-5.2763,-5.2836,-5.2936,-5.3029,-5.3225,-5.3347,-5.3418,-5.3533,-5.3693,-5.383,-5.3859,-5.3914,-5.3936,-5.3967,-5.3817,-5.38,-5.3783,-5.3746,-5.3948,-5.3948,-5.4114,-5.4116,-5.4117]},{"header":{"parameterUnit":"m.s-1","parameterCategory":1,"la1":30.2991,"la2":30.254,"lo1":-89.0895,"lo2":-89.0444,"dy":0.0017,"dx":0.0017,"nx":28,"ny":28,"refTime":"2024-03-05T09:00:00:Z","depth":0,"parameterNumber":3,"parameterNumberName":"V-component_of_WINDS"},"data":[0,0,0,0,0,0,0,0,0,0,0,0,0,0,0,0,0,0,0,0,0,0,0,0,0,0,0,0,0,0,0,0,0,0,0,0,0,0,0,0,0,0,0,0,0,0,0,0,0,0,0,0,0,0,0,0,0,0,5.8915,5.8917,0,5.9097,5.9099,5.9101,5.9114,5.9112,5.911,5.9108,5.9291,5.9297,5.9304,0,0,0,0,0,0,0,0,0,0,0,0,0,5.8577,5.8583,5.8915,5.8917,5.892,5.9097,5.9099,5.9102,5.9114,5.9112,5.9109,5.9107,5.9288,5.9296,5.9304,0,0,0,0,0,0,0,0,0,0,0,0,0,5.8737,5.8585,5.8915,5.8947,5.8952,5.9096,5.9099,5.9102,5.9115,5.9112,5.9109,5.9106,5.9286,5.9296,5.9306,5.9429,0,0,5.9337,5.9341,0,0,0,0,0,0,0,0,5.8728,5.875,5.894,5.8945,5.8951,5.908,5.9047,5.9212,5.9115,5.9053,5.9108,5.9104,5.9223,5.9238,5.9278,5.9437,5.9445,5.9337,5.9344,5.9348,5.9351,0,0,0,0,0,0,0,5.8717,5.8742,5.8987,5.8943,5.895,5.8952,5.8972,5.9078,5.9152,5.9058,5.9059,5.9081,5.9225,5.9269,5.9283,5.9448,5.9337,5.9346,5.9352,5.9356,5.9718,5.9722,0,0,0,0,0,0,5.87,5.8733,5.8981,5.8992,5.883,5.8961,5.8983,5.9041,5.9151,5.9165,5.9083,5.9081,5.9253,5.9271,5.9289,5.9442,5.9348,5.9357,5.9363,5.9715,5.9719,5.9723,0,0,0,0,0,0,5.8693,5.8722,5.8974,5.8863,5.8895,5.897,5.9036,5.9047,5.909,5.917,5.9183,5.9115,5.9251,5.9275,5.9395,5.9449,5.9362,5.9371,5.9711,5.9716,5.9721,5.9748,0,0,0,0,0,0,5.8683,5.872,5.8767,5.8864,5.8901,5.9077,5.9039,5.9052,5.9108,5.9107,5.9203,5.9216,5.9251,5.9379,5.9405,5.9461,5.9379,5.9706,5.9713,5.9719,5.9743,5.9753,5.9763,0,0,0,0,0,5.8671,5.8767,5.877,5.88,5.8963,5.908,5.9101,5.914,5.9112,5.9161,5.9213,5.9213,5.9438,5.9392,5.942,5.948,5.9703,5.9711,5.9719,5.9738,5.9751,5.9763,0,0,0,0,0,0,5.8673,5.878,5.8785,5.8915,5.8988,5.9082,5.9145,5.9152,5.9235,5.923,5.9273,5.9295,5.9413,5.9458,5.9404,5.9606,5.9568,5.9582,5.9572,5.9586,5.9596,5.9583,5.9387,0,0,0,0,0,5.8689,5.8776,5.8864,5.897,5.9007,5.9069,5.9122,5.9145,5.9223,5.9254,5.9314,5.9389,5.9477,5.9533,5.9618,5.9749,5.9771,5.9804,5.9814,5.9822,5.9834,5.9908,5.9925,5.9749,5.9749,5.9749,0,0,5.8722,5.8791,5.8843,5.8972,5.9032,5.9121,5.9096,5.919,5.9256,5.9268,5.9385,5.9432,5.9518,5.9644,5.9703,5.9686,5.9888,5.9833,5.9838,5.9846,5.9918,5.9935,5.9949,5.9755,5.9754,5.9753,0,0,5.8828,5.8888,5.8985,5.9046,5.9137,5.9178,5.9201,5.9295,5.9327,5.9445,5.9456,5.9535,5.9685,5.9747,5.9797,5.9928,5.9932,5.9955,6.0008,6.0079,6.0093,6.0106,6.0154,6.017,5.9966,5.9966,5.9966,0,5.8857,5.8992,5.9032,5.9128,5.9185,5.9201,5.9299,5.9355,5.9469,5.9508,5.9488,5.9678,5.9736,5.9878,5.991,5.995,5.9978,5.9944,6.0088,6.0101,6.0113,6.0159,6.0177,5.9968,5.9968,5.9968,5.9968,0,5.9024,5.9118,5.9184,5.9297,5.9361,5.9456,5.9511,5.9571,5.9589,5.9632,5.9753,5.9825,5.9925,5.996,5.9978,6.0105,6.0092,6.0079,6.0042,6.0132,6.0176,6.0194,5.9971,5.9971,5.997,5.9969,0,0,5.9137,5.9271,5.9295,5.9346,5.9449,5.9522,5.9619,5.9718,5.977,5.9848,5.993,6.0058,6.0047,6.0105,6.013,6.0192,6.0293,6.0172,6.0175,6.0193,6.0439,6.0449,6.0468,6.0296,6.0299,6.0302,6.0432,0,5.9255,5.943,5.9469,5.9618,5.9706,5.9723,5.9807,5.9879,5.9922,6.0002,6.0049,6.0139,6.0118,6.0153,6.0216,6.0268,6.0343,6.0259,6.0373,6.0377,6.0353,6.0491,6.0502,6.0621,6.0449,6.0452,6.0454,0,5.9417,5.9501,5.966,5.9753,5.9791,5.9866,5.9962,6.0038,6.012,6.0147,6.0212,6.0231,6.0332,6.0289,6.0429,6.0371,6.042,6.0452,6.0458,6.0471,6.0422,6.0509,6.0659,6.0678,6.0482,6.048,6.0478,0,5.9485,5.9638,5.9753,5.9796,5.9907,5.996,6.0008,6.0087,6.0145,6.0228,6.0266,6.0359,6.041,6.0482,6.0525,6.0489,6.0662,6.0622,6.0688,6.0687,6.0724,6.0721,6.0886,6.0754,6.0753,6.0753,6.0753,0,5.9615,5.9711,5.9785,5.9856,5.9965,6.0009,6.0116,6.0164,6.0234,6.0315,6.0334,6.0408,6.0461,6.0543,6.0577,6.0689,6.0711,6.0736,6.0744,6.0735,6.0732,6.0769,6.0762,6.0758,6.0757,6.0756,6.0755,0,5.9709,5.9763,5.989,5.9985,6.0011,6.0087,6.0168,6.0237,6.0281,6.0382,6.0409,6.0477,6.0575,6.0625,6.0746,6.0769,6.0895,6.0898,6.0868,6.0872,6.0935,6.0929,6.1129,6.1158,6.1006,6.1007,6.1008,0,5.9789,5.9864,5.9968,6.0024,6.0074,6.0163,6.0223,6.0269,6.033,6.043,6.0488,6.0587,6.0669,6.0824,6.0884,6.0977,6.0983,6.1046,6.0997,6.0986,6.0985,6.0981,6.0989,6.1055,6.1057,6.1058,6.1059,0,5.9925,5.9948,6.0034,6.0131,6.0202,6.0279,6.0355,6.0399,6.0458,6.0526,6.0627,6.0691,6.0815,6.0914,6.1012,6.106,6.107,6.1074,6.1094,6.1087,6.1067,6.108,6.0894,6.1069,6.1068,6.1068,6.1067,6.1067,6.0016,6.0084,6.0169,6.0264,6.0327,6.0398,6.0468,6.0521,6.0607,6.0713,6.0735,6.0842,6.0922,6.1055,6.1107,6.1191,6.1178,6.1207,6.1215,6.1221,6.1225,6.1053,6.1209,6.1209,6.1209,6.1209,6.1208,0,6.0155,6.021,6.0298,6.0405,6.048,6.0483,6.0568,6.063,6.0725,6.08,6.0881,6.0997,6.1093,6.1161,6.1258,6.1312,6.1319,6.1336,6.1333,6.1345,6.1231,6.1204,6.1329,6.1329,6.1329,6.1329,6.1329,6.1329,6.0236,6.0352,6.0385,6.0533,6.0587,6.0693,6.0742,6.0807,6.0868,6.0998,6.1078,6.1122,6.1194,6.1297,6.1385,6.1402,6.1438,6.1455,6.1473,6.1365,6.1353,6.134,6.1316,6.1462,6.1462,6.158,6.1581,6.1582]}]]